Temperature
18 18 18 18 18 18 18 18 18 18 18 17 18 18 18 18 18 18 18 18 18 18 18 17 17 17 17 17 17 17 17 17 17 17 17 16 16 16 16 16 16 16 15
18 18 18 18 18 18 18 18 18 18 18 18 18 18 18 18 18 18 18 18 18 18 18 18 18 18 17 17 17 17 17 17 17 17 17 17 16 16 16 16 16 16 15
18 18 18 18 18 18 18 18 18 18 18 18 18 18 18 18 18 18 18 18 18 18 19 19 18 18 18 17 17 17 17 17 17 17 17 17 17 17 16 16 16 16 15
18 18 18 18 18 18 18 18 18 18 18 18 18 18 18 18 18 18 18 18 18 18 18 18 19 18 18 18 18 17 17 17 17 17 17 17 17 17 17 16 16 16 15
18 18 18 18 18 18 18 18 18 18 18 18 18 18 18 18 18 18 18 18 18 18 18 18 18 19 18 18 18 18 18 17 17 17 17 17 17 17 17 16 16 16 15
18 18 18 18 18 18 18 18 18 18 18 18 18 18 18 18 18 19 18 19 19 19 18 18 18 18 18 18 18 18 18 18 18 17 17 17 17 17 17 16 16 16 16
18 18 18 18 18 18 17 17 17 17 17 17 17 18 18 19 19 18 18 18 19 19 19 18 18 18 18 18 18 18 18 18 18 18 18 17 17 17 16 16 16 16 16
18 17 17 17 17 17 17 17 17 17 17 17 17 18 19 20 19 19 18 18 18 18 18 18 18 18 18 18 18 18 18 18 18 18 18 17 17 17 17 16 16 16 16
18 17 16 16 16 17 16 17 17 17 16 16 16 16 18 19 19 19 18 18 17 17 18 18 17 17 18 18 18 18 18 18 18 18 18 17 17 17 17 17 16 16 16
17 16 16 16 16 16 16 16 16 16 16 16 16 16 16 16 16 17 18 18 17 17 17 17 17 17 17 17 18 18 18 18 18 18 17 17 17 17 17 17 16 16 16
16 15 15 15 15 15 16 16 16 16 16 15 16 16 15 16 15 15 17 17 17 17 17 17 17 17 17 17 17 17 17 17 17 17 17 17 17 17 17 17 17 17 16
15 15 15 15 15 15 15 15 15 15 15 15 15 15 15 15 15 15 15 16 16 16 16 16 16 16 16 16 16 17 17 17 17 17 17 17 17 16 16 17 17 17 16
15 15 15 15 14 15 15 15 15 15 15 15 15 15 15 15 15 15 15 15 15 16 16 16 15 15 15 16 16 16 17 17 17 17 16 16 16 16 16 17 17 16 16
15 14 14 14 14 14 14 14 14 14 14 15 15 15 15 14 14 14 14 14 15 15 15 15 15 14 15 15 15 16 16 16 16 16 16 16 16 16 16 16 16 16 16
14 14 14 14 14 14 14 14 14 14 14 14 14 14 14 14 14 14 14 14 14 15 15 14 14 14 14 14 15 15 15 15 15 15 15 15 16 16 16 16 16 16 16
13 13 13 13 13 13 13 13 13 13 14 14 14 14 14 14 14 13 13 13 13 14 14 14 14 14 14 14 14 14 14 14 15 15 15 15 15 16 16 16 16 16 16
13 13 13 13 13 12 12 13 13 13 13 13 13 13 13 13 13 13 13 13 13 13 14 14 14 14 14 14 14 14 14 14 14 14 14 15 15 15 16 16 16 16 15
12 12 12 12 12 12 12 12 12 12 12 12 12 12 12 12 12 12 13 13 13 13 13 13 13 13 14 14 14 14 14 14 14 14 14 14 14 15 15 15 15 15 15
12 12 12 12 12 12 12 12 12 12 12 12 12 12 12 12 12 12 12 12 13 13 13 13 13 13 13 13 13 14 14 14 14 14 14 14 14 14 14 14 15 15 14
12 12 12 11 12 12 12 12 11 11 11 11 11 11 11 11 11 11 12 12 12 12 13 13 13 13 13 13 13 13 13 13 13 13 13 13 13 13 14 14 14 14 14
11 12 12 11 11 11 11 11 11 11 11 11 11 11 11 11 11 11 11 11 12 12 12 13 12 12 12 12 12 12 12 13 13 13 13 13 13 13 13 13 13 13 13
11 11 11 11 12 12 12 11 11 11 11 11 11 11 11 11 11 11 11 12 12 12 11 12 12 12 11 11 12 12 12 12 12 12 12 12 12 12 12 12 12 12 12
11 11 11 12 12 12 11 11 11 11 11 11 11 11 11 11 11 11 11 11 11 11 11 11 11 11 11 11 11 11 11 11 11 11 11 11 11 11 11 12 12 12 12
11 11 11 11 12 11 11 11 11 11 11 10 10 10 10 10 11 10 10 11 11 11 11 11 11 11 11 11 11 11 11 12 11 11 11 11 11 11 11 11 11 12 12
11 11 11 11 11 11 11 11 11 10 10 10 10 10 10 10 10 10 10 10 10 10 10 10 11 11 11 11 11 12 12 12 12 11 11 11 10 11 11 11 11 11 11
11 11 11 11 11 11 11 10 10 10 10 10 10 10 10 10 10 10 10 10 10 10 10 10 10 10 10 10 10 11 11 11 12 11 11 10 10 10 10 10 10 10 11
Wind_Speed
8 8 7 7 9 8 8 8 8 8 8 10 10 10 10 10 11 11 9 11 16 17 16 15 15 15 16 17 17 17 17 16 16 18 20 21 21 21 21 22 23 23 22
9 8 8 8 9 9 9 8 9 8 8 8 9 10 10 12 11 11 12 12 18 18 18 17 16 16 16 16 16 17 17 16 16 17 17 18 19 20 20 20 22 24 24
11 10 10 9 9 10 9 10 10 9 9 9 10 10 10 10 11 11 12 12 12 16 19 19 18 17 17 17 17 17 17 17 17 17 17 17 17 18 18 18 20 23 26
14 11 11 11 10 10 9 9 9 10 9 10 10 10 10 10 12 12 13 12 11 11 13 19 19 18 17 17 18 18 18 18 18 18 18 17 17 17 17 17 18 21 26
15 13 11 10 10 9 9 10 9 9 10 10 11 11 12 12 12 13 14 14 14 14 14 12 19 19 18 18 19 19 18 19 19 19 19 18 18 18 18 18 18 20 24
15 13 10 11 10 9 9 9 9 9 9 10 12 13 13 14 14 14 15 15 14 16 16 15 14 17 21 20 20 20 19 19 19 20 20 20 20 20 20 19 19 20 23
12 10 10 9 9 8 9 10 9 11 10 9 11 13 13 14 14 13 13 14 14 14 14 14 14 14 13 21 22 21 20 20 20 21 21 21 21 21 21 21 21 21 23
8 8 9 8 8 7 8 9 8 8 8 7 9 10 10 10 9 10 10 10 11 10 11 12 13 12 13 12 15 22 21 21 21 22 22 22 22 22 22 22 22 23 24
6 5 6 6 6 8 8 8 7 8 8 7 7 7 7 9 7 6 8 8 9 8 9 8 9 11 12 12 11 18 20 20 21 22 22 22 21 21 21 21 22 23 24
6 6 6 6 7 8 7 7 7 7 7 7 6 7 9 8 7 8 8 7 8 8 8 7 7 7 9 10 10 7 12 16 18 19 18 18 18 19 19 20 21 22 24
7 7 6 6 8 8 6 5 5 6 6 7 6 7 8 8 10 8 10 9 8 7 5 6 5 5 5 7 8 9 11 14 14 14 14 14 15 16 17 18 20 22 23
8 10 9 9 9 7 7 6 6 6 6 6 6 6 6 6 6 6 7 9 8 6 5 4 3 2 2 4 6 2 7 11 13 13 12 12 13 15 17 19 21 23 24
8 9 9 8 8 8 7 6 6 5 5 5 5 5 4 4 5 5 6 7 7 5 4 2 1 2 2 3 3 2 6 8 10 10 10 10 12 14 17 19 21 23 24
7 8 8 8 8 8 7 6 6 5 4 4 3 2 1 2 3 3 4 5 6 4 2 2 2 3 4 5 4 6 3 6 6 7 9 10 12 14 16 18 21 22 23
6 7 7 7 6 6 6 6 4 4 3 2 1 1 1 1 2 3 3 4 5 6 4 3 3 4 6 6 5 5 4 5 6 7 8 9 11 12 15 17 19 21 21
5 6 6 6 5 5 5 5 4 2 2 1 1 1 2 2 3 3 4 4 4 5 5 4 4 6 7 6 5 6 5 4 7 7 7 8 9 11 13 14 15 17 19
4 5 5 5 5 5 4 4 3 3 2 3 3 3 4 4 4 4 4 4 4 5 7 6 4 5 5 6 5 5 5 4 4 6 5 6 8 9 10 11 11 13 17
3 4 5 5 5 5 4 4 5 5 5 6 6 5 5 4 5 5 6 6 5 5 7 8 7 6 5 5 6 4 4 4 4 4 4 5 7 8 8 8 6 9 15
4 5 6 6 6 6 6 7 7 7 7 7 6 6 6 6 6 6 7 7 6 6 5 6 6 5 4 6 7 5 4 4 4 4 3 3 4 5 6 4 1 5 13
6 7 7 7 7 8 8 9 8 8 8 8 7 7 8 8 8 8 6 7 7 7 6 5 6 6 7 8 8 7 6 3 3 2 1 1 1 2 2 2 2 5 11
7 7 8 8 8 8 8 9 10 10 10 10 9 9 9 8 8 8 8 9 9 8 8 7 8 9 9 9 9 8 8 6 2 1 1 1 1 1 0 2 3 6 10
8 8 9 9 10 9 10 10 9 11 10 10 9 8 8 8 7 7 8 9 10 10 10 9 10 10 10 10 9 8 8 6 4 4 2 0 1 1 2 1 6 9 10
9 9 9 10 11 9 9 10 8 10 10 9 9 8 9 9 8 8 6 5 9 8 7 9 11 11 11 10 10 9 8 7 5 5 3 3 3 2 3 3 8 9 10
8 9 9 11 11 9 8 8 7 10 10 9 9 9 9 9 9 8 7 9 10 10 10 10 10 10 10 10 10 8 4 3 4 5 4 3 4 3 3 3 4 6 9
9 9 9 11 11 9 6 4 2 8 8 8 8 8 8 9 12 13 6 7 7 6 5 4 4 3 4 8 12 10 10 8 6 6 5 3 2 2 3 3 2 1 6
9 9 9 10 10 9 6 2 2 4 6 5 6 6 11 10 11 13 7 7 7 6 6 5 3 3 6 8 10 12 11 10 8 7 8 5 3 2 1 1 1 0 2
Wind_Direction
239 242 247 252 259 259 253 248 258 270 274 271 273 272 274 274 269 267 267 234 235 242 247 251 253 249 244 242 239 236 236 235 232 230 229 230 232 234 234 233 230 222 216
243 246 245 247 254 258 263 270 269 269 269 274 274 274 273 273 269 266 263 250 223 229 240 246 248 247 242 239 237 234 232 232 230 228 227 228 230 233 235 235 231 221 215
237 242 250 250 251 254 254 257 264 269 267 266 268 272 270 269 271 270 269 269 259 226 224 235 240 241 237 234 233 230 228 227 226 226 226 228 230 232 234 235 231 223 214
240 244 251 253 254 256 257 259 263 267 269 271 274 278 280 275 267 265 262 256 259 265 236 221 228 232 231 230 229 228 227 225 224 224 225 228 231 232 233 234 230 225 216
242 245 252 259 263 262 262 265 263 266 274 278 279 273 272 272 271 266 264 262 256 254 260 232 215 224 226 226 225 225 226 224 223 223 225 227 231 232 232 232 230 227 218
251 252 252 256 260 263 265 263 269 267 274 278 281 282 277 273 269 266 264 262 257 253 251 253 237 224 218 221 222 223 225 225 223 223 225 228 230 231 230 231 229 227 219
273 268 262 263 260 258 264 271 272 273 272 278 281 281 276 266 260 260 262 266 266 262 258 249 245 243 220 212 218 222 225 226 224 223 225 229 231 231 230 230 229 226 219
279 274 271 265 262 265 265 266 266 278 281 276 279 291 289 280 256 251 255 259 268 270 264 250 239 238 243 232 213 213 222 226 226 226 227 230 232 233 233 232 230 226 219
249 240 250 257 264 261 256 254 258 256 266 271 263 272 289 296 316 277 264 264 266 270 268 264 244 236 232 237 235 207 213 222 227 229 231 233 235 236 237 236 233 227 220
220 224 221 231 244 248 247 247 248 256 258 270 266 254 260 276 279 287 274 266 265 264 265 259 251 236 233 235 237 247 213 223 228 233 236 240 242 240 239 239 239 233 223
201 211 216 217 227 235 237 245 247 256 260 271 279 278 275 269 258 263 281 287 284 275 264 250 246 246 237 240 244 241 214 224 228 232 237 245 251 252 249 248 247 241 229
196 202 206 217 223 226 222 231 243 246 264 276 280 280 280 280 281 273 280 290 290 287 288 286 275 273 263 260 252 245 221 226 228 232 234 242 252 259 260 257 252 245 234
199 198 198 211 218 218 221 231 237 257 261 271 278 285 292 298 303 298 291 296 295 298 291 282 358 28 355 321 318 321 231 223 223 226 232 241 252 260 262 259 254 247 236
195 189 197 211 218 217 220 227 239 239 251 258 274 303 320 343 344 342 328 319 313 309 311 346 5 27 5 344 351 300 227 190 207 224 238 249 256 261 263 260 253 245 236
179 186 194 204 209 212 221 230 228 233 239 236 219 213 303 318 315 336 341 341 334 332 335 348 340 349 341 334 316 291 268 181 210 229 244 257 266 271 272 266 253 238 229
170 179 184 186 191 201 209 222 204 190 210 119 86 47 4 350 325 315 321 323 320 318 312 321 319 322 325 320 308 292 275 201 219 231 252 267 277 282 285 280 259 233 219
172 172 176 177 182 189 191 196 178 156 129 89 66 52 38 15 355 347 340 326 317 308 300 304 296 303 305 311 313 288 268 249 234 223 252 278 288 296 300 293 265 228 208
161 161 167 165 165 164 166 155 129 105 90 78 65 55 40 32 18 8 355 352 344 326 309 311 315 317 312 316 311 287 258 249 247 219 240 287 305 312 316 310 271 216 191
146 148 150 146 141 136 125 109 99 89 80 70 62 56 46 35 25 21 6 3 351 341 332 320 332 343 337 344 334 319 273 246 235 212 219 265 312 329 337 334 286 186 172
142 136 133 129 125 118 110 103 97 90 84 77 68 58 46 38 26 12 12 12 2 356 12 12 19 17 11 4 359 346 328 285 243 223 190 14 359 341 4 21 99 145 157
136 131 128 122 116 109 103 103 101 97 92 86 76 67 59 53 43 24 22 18 17 20 30 34 36 31 22 11 5 351 339 331 293 251 213 216 273 297 333 124 120 135 146
134 132 125 117 107 98 82 78 95 99 91 85 78 74 76 61 76 76 55 44 31 29 29 27 36 32 22 13 3 5 4 5 4 357 329 303 349 340 343 30 131 139 145
135 128 123 115 107 100 89 81 76 96 89 80 73 63 59 54 37 58 87 114 70 50 24 26 39 24 19 12 1 15 31 35 17 344 359 32 13 6 13 65 136 153 157
138 134 131 125 120 115 104 99 94 98 92 84 76 70 65 55 35 19 58 64 61 52 39 43 44 34 26 5 354 0 4 63 67 38 28 42 16 15 19 39 135 173 181
145 145 140 138 134 133 132 122 128 113 105 92 78 62 54 57 19 353 39 56 56 60 93 80 21 359 358 7 2 7 6 9 34 48 32 33 22 14 22 24 53 189 210
149 146 140 145 144 142 141 144 263 132 119 115 105 95 66 41 18 3 25 37 38 24 16 30 41 22 26 34 27 19 9 7 12 32 24 12 22 33 47 25 16 2 221
Height
1553 1553 1552 1552 1552 1552 1551 1550 1549 1548 1547 1547 1547 1546 1545 1544 1543 1543 1542 1540 1540 1539 1539 1538 1538 1538 1538 1539 1540 1540 1541 1542 1542 1542 1542 1543 1544 1545 1546 1547 1548 1550 1551
1550 1550 1549 1549 1549 1549 1548 1547 1547 1545 1544 1544 1543 1542 1541 1541 1540 1539 1538 1537 1536 1535 1535 1534 1534 1534 1534 1534 1535 1536 1537 1538 1538 1538 1539 1539 1540 1541 1542 1543 1544 1545 1547
1546 1547 1547 1546 1546 1546 1545 1543 1543 1542 1540 1540 1539 1538 1537 1536 1535 1534 1533 1533 1533 1531 1530 1530 1529 1529 1529 1530 1530 1531 1533 1534 1534 1535 1535 1535 1536 1537 1537 1538 1539 1541 1542
1543 1543 1543 1543 1543 1542 1541 1540 1539 1538 1537 1536 1535 1534 1533 1531 1530 1529 1528 1527 1527 1527 1526 1525 1525 1525 1525 1525 1526 1527 1528 1529 1530 1531 1532 1532 1533 1533 1534 1534 1535 1536 1537
1539 1540 1540 1539 1539 1538 1537 1536 1535 1534 1533 1531 1530 1528 1527 1526 1524 1523 1522 1522 1521 1520 1520 1520 1519 1519 1520 1520 1521 1522 1523 1525 1526 1527 1528 1529 1529 1529 1530 1530 1531 1532 1533
1536 1536 1536 1535 1534 1533 1533 1532 1531 1529 1528 1527 1525 1523 1521 1519 1518 1516 1515 1515 1514 1514 1514 1514 1514 1514 1514 1515 1516 1517 1519 1520 1521 1522 1524 1525 1525 1526 1526 1526 1527 1527 1528
1532 1532 1531 1530 1529 1528 1528 1528 1527 1525 1524 1523 1521 1517 1515 1512 1510 1509 1508 1508 1508 1507 1507 1507 1507 1509 1509 1509 1511 1512 1513 1515 1516 1517 1519 1520 1521 1521 1522 1522 1523 1523 1523
1525 1526 1526 1525 1524 1523 1523 1523 1521 1520 1519 1518 1516 1513 1509 1508 1505 1504 1503 1502 1501 1501 1500 1500 1500 1500 1503 1505 1505 1506 1508 1509 1511 1512 1514 1515 1516 1517 1517 1517 1517 1518 1518
1518 1516 1517 1516 1517 1518 1519 1518 1516 1515 1514 1513 1511 1511 1508 1503 1502 1500 1499 1498 1496 1495 1495 1494 1494 1494 1495 1497 1499 1500 1502 1504 1505 1507 1508 1510 1511 1512 1512 1512 1512 1512 1512
1508 1507 1507 1509 1512 1514 1514 1513 1512 1510 1509 1508 1507 1505 1504 1502 1500 1496 1495 1493 1492 1490 1490 1489 1489 1489 1490 1491 1493 1494 1496 1498 1499 1501 1502 1504 1505 1505 1506 1506 1505 1505 1505
1500 1500 1500 1502 1506 1508 1508 1508 1507 1506 1505 1504 1503 1501 1500 1497 1495 1494 1490 1489 1488 1487 1486 1485 1485 1485 1486 1486 1487 1488 1490 1492 1493 1494 1496 1497 1498 1499 1499 1498 1498 1497 1497
1494 1495 1496 1498 1500 1502 1503 1503 1503 1502 1501 1499 1498 1497 1496 1494 1492 1490 1487 1485 1484 1483 1482 1481 1481 1481 1481 1481 1482 1482 1484 1485 1487 1488 1489 1490 1491 1491 1491 1490 1489 1489 1489
1489 1491 1492 1494 1496 1497 1499 1499 1499 1498 1497 1496 1495 1494 1492 1491 1489 1487 1485 1483 1481 1480 1479 1478 1477 1477 1477 1477 1477 1477 1478 1479 1480 1481 1482 1483 1484 1483 1483 1482 1481 1480 1481
1485 1487 1488 1491 1493 1494 1495 1495 1496 1495 1493 1492 1492 1490 1489 1489 1487 1485 1484 1482 1480 1479 1478 1477 1476 1474 1473 1473 1472 1473 1473 1474 1475 1475 1476 1477 1477 1476 1475 1474 1472 1472 1474
1482 1484 1485 1487 1489 1491 1492 1492 1492 1491 1491 1490 1490 1488 1488 1487 1486 1485 1483 1482 1482 1479 1478 1476 1475 1473 1472 1471 1470 1469 1469 1469 1470 1470 1471 1471 1470 1470 1468 1467 1465 1465 1466
1480 1482 1484 1485 1486 1488 1489 1489 1489 1488 1489 1488 1487 1487 1486 1486 1485 1484 1483 1481 1480 1479 1478 1476 1474 1472 1470 1469 1467 1466 1466 1466 1466 1466 1465 1465 1465 1464 1462 1461 1459 1458 1459
1479 1481 1483 1483 1485 1486 1487 1487 1488 1487 1487 1486 1486 1486 1485 1484 1484 1484 1482 1481 1479 1478 1476 1475 1472 1470 1468 1467 1465 1463 1463 1462 1462 1461 1461 1460 1460 1459 1457 1455 1454 1453 1454
1479 1480 1481 1483 1484 1485 1485 1486 1486 1486 1486 1485 1485 1485 1484 1484 1483 1482 1481 1479 1478 1476 1475 1473 1471 1469 1467 1465 1462 1460 1459 1458 1457 1457 1457 1456 1456 1455 1453 1451 1450 1450 1450
1479 1480 1481 1482 1483 1484 1484 1485 1485 1485 1485 1485 1485 1485 1484 1484 1483 1482 1480 1479 1477 1476 1474 1472 1469 1467 1465 1463 1461 1459 1457 1455 1454 1454 1453 1453 1452 1451 1450 1449 1448 1447 1448
1479 1481 1482 1483 1484 1484 1484 1485 1485 1485 1485 1485 1485 1485 1485 1484 1483 1482 1481 1479 1477 1476 1474 1472 1470 1468 1465 1463 1460 1458 1455 1453 1452 1451 1450 1450 1450 1449 1449 1448 1447 1447 1448
1480 1481 1482 1483 1484 1485 1485 1485 1486 1486 1487 1487 1487 1486 1486 1485 1483 1482 1482 1480 1478 1477 1475 1473 1471 1469 1467 1464 1461 1458 1455 1452 1450 1449 1448 1448 1448 1448 1449 1448 1448 1448 1449
1481 1482 1484 1485 1485 1486 1486 1487 1488 1488 1489 1489 1489 1489 1488 1487 1485 1484 1483 1482 1480 1479 1477 1476 1474 1472 1470 1467 1463 1460 1456 1452 1450 1448 1446 1446 1446 1447 1448 1450 1450 1450 1451
1482 1483 1485 1486 1486 1487 1488 1489 1490 1491 1491 1491 1491 1491 1490 1489 1487 1487 1485 1484 1483 1481 1479 1478 1477 1475 1473 1470 1466 1463 1459 1455 1452 1449 1447 1446 1446 1446 1448 1450 1451 1453 1454
1482 1483 1485 1487 1488 1489 1490 1491 1492 1493 1493 1493 1492 1492 1491 1490 1489 1488 1488 1487 1485 1483 1482 1480 1478 1476 1475 1472 1469 1466 1463 1459 1455 1452 1449 1448 1447 1447 1448 1449 1452 1454 1456
1481 1483 1485 1487 1488 1490 1491 1493 1493 1494 1494 1494 1493 1493 1493 1492 1491 1490 1490 1489 1487 1486 1484 1482 1480 1478 1476 1473 1470 1468 1465 1462 1459 1456 1454 1452 1450 1449 1449 1449 1451 1454 1456
1480 1483 1484 1486 1488 1490 1491 1492 1493 1495 1494 1495 1494 1494 1493 1492 1492 1491 1490 1489 1488 1487 1486 1484 1482 1480 1478 1475 1472 1469 1467 1465 1462 1460 1458 1455 1453 1452 1451 1451 1451 1452 1454